Simultaneous Nadir Overpasses (SNOs) Predictions

Prediction of SNOs between GOES-16 and METOP-B Satellite Orbit:

Table of predicted SNOs for the next 14.0 days since TLE Epoch: 7/16/2022
Index Date Time (GOES-16) GOES-16 Lat,Lon METOP-B Lat,Lon Distance(km) Time Diff (sec)
1 07/17/2022 02:33:11 0.02, -75.19 -0.17, -76.09 102.57 80
2 07/18/2022 02:15:11 0.02, -75.20 0.95, -71.10 467.32 80
3 07/19/2022 14:31:23 -0.02, -75.23 0.08, -75.66 49.20 80
4 07/22/2022 02:29:42 0.02, -75.24 -0.01, -75.25 3.25 80
5 07/24/2022 14:30:34 -0.01, -75.29 -0.09, -74.82 53.11 80
6 07/26/2022 02:49:34 -0.01, -75.30 -0.95, -79.41 469.02 80
7 07/27/2022 02:26:14 -0.00, -75.32 0.18, -74.42 101.90 80
8 07/28/2022 14:47:46 0.00, -75.36 0.79, -78.99 413.32 80
9 07/29/2022 14:24:26 -0.00, -75.38 -0.28, -73.99 158.08 80
